Location: Newark
(55.1225°N, 33.2808°E)
Time: 16:12:32
(UTC+00:00)

Envisat - Visible Passes

Search period start: 17 September 2019 00:00
Search period end: 27 September 2019 00:00
Orbit: 764 x 766 km, 98.1° (Epoch: 17 September)

Date Brightness Start Highest point End Pass type
(mag) Time Alt. Az. Time Alt. Az. Time Alt. Az.
18 Sep 5.9 17:23:21 10° SW 17:26:30 16° W 17:29:41 10° NW visible
19 Sep 5.2 16:44:51 10° SSW 16:49:17 30° W 16:53:45 10° NNW visible
20 Sep 6.5 17:52:01 10° W 17:52:28 10° W 17:52:55 10° WNW visible
21 Sep 5.8 17:11:26 10° SW 17:15:05 20° W 17:18:47 10° NW visible
22 Sep 4.8 16:33:16 10° SSW 16:37:56 36° W 16:42:38 10° NNW visible
23 Sep 6.2 17:38:52 10° WSW 17:41:00 13° W 17:43:10 10° WNW visible
24 Sep 5.6 16:59:40 10° SW 17:03:42 23° W 17:07:46 10° NW visible
25 Sep 4.5 16:21:46 10° S 16:26:35 43° W 16:31:27 10° NNW visible
26 Sep 6.0 17:26:39 10° WSW 17:29:34 15° W 17:32:30 10° NW visible
